Regional Weather Roundup
Issued by NWS

Home | Current Version | Previous Version | Graphics & Text | Print | Product List | Glossary Off
Versions: 1 2 3 4 5 6 7 8 9 10 11 12 13 14 15 16 17 18 19 20 21 22 23 24 25 26 27 28 29 30 31 32 33 34 35 36 37 38 39 40 41 42 43 44 45 46 47 48 49 50

000
ASUS43 KMKX 131000
RWRWI

WISCONSIN REGIONAL WEATHER ROUNDUP
NATIONAL WEATHER SERVICE MILWAUKEE/SULLIVAN WI
400 AM CST SAT FEB 13 2016

NOTE: "FAIR" INDICATES FEW OR NO CLOUDS BELOW 12,000 FEET WITH NO
SIGNIFICANT WEATHER AND/OR OBSTRUCTIONS TO VISIBILITY.

WIZ001-002-006>008-014>016-023>028-131100-
NORTHWEST WISCONSIN

CITY           SKY/WX    TMP DP  RH WIND       PRES   REMARKS
SUPERIOR ARPT  CLOUDY    -9 -18  65 W3        30.63S
ASHLAND        CLOUDY    -3  -9  75 NW7       30.57S HAZE    WCI -16
HAYWARD        CLOUDY   -12 -21  64 CALM      30.54S
SIREN          PTCLDY   -13 -20  71 W5        30.61F WCI -25
CUMBERLAND     CLOUDY    -9 -18  64 NW5       30.56S WCI -21
RICE LAKE      CLOUDY    -8 -18  62 W3        30.60R
CHETEK         CLOUDY    -8 -17  64 MISG      30.58S
LADYSMITH      CLOUDY    -8 -18  62 NW7       30.54S WCI -23
EAU CLAIRE     NOT AVBL
MENOMONIE      PTCLDY    -4 -17  55 NW8       30.61S WCI -19
NEW RICHMOND   PTCLDY    -8 -17  63 NW7       30.61F WCI -22
OSCEOLA        PTCLDY    -5 -15  63 NW6       30.66S WCI -18
$$

WIZ003>005-009-010-017-018-131100-
NORTH CENTRAL WISCONSIN

CITY           SKY/WX    TMP DP  RH WIND       PRES   REMARKS
MANITOWISH WTR PTCLDY    -9 -14  78 NW7       30.40S WCI -23
ARBOR VITAE    FLURRIES  -6 -12  76 NW3       30.40S
WOODRUFF       FLURRIES  -6 -12  76 NW3       30.40S
RHINELANDER    CLOUDY   -10 -15  78 W9        30.40S WCI -27
EAGLE RIVER    FLURRIES  -8 -14  74 W7        30.37R WCI -23
LAND O LAKES   LGT SNOW  -2  -7  81 NW6       30.36S WCI -14
PHILLIPS       CLOUDY   -13 -17  82 CALM      30.47R
TOMAHAWK       CLOUDY    -9 -15  76 NW7       30.45R WCI -24
MEDFORD        CLOUDY    -9 -17  67 NW10      30.46S WCI -27
MERRILL        CLOUDY    -7 -14  71 NW6       30.47S WCI -20
$$

WIZ029-030-035-036-043>047-131100-
CENTRAL WISCONSIN

CITY           SKY/WX    TMP DP  RH WIND       PRES   REMARKS
WAUSAU         CLOUDY    -5 -14  65 NW8       30.47S WCI -20
MOSINEE        CLOUDY    -6 -15  65 NW12      30.49S WCI -24
MARSHFIELD     CLOUDY    -7 -19  56 NW13      30.49R WCI -27
STEVENS POINT  CLOUDY    -7 -17  60 NW5       30.50S WCI -18
WAUPACA        PTCLDY    -1 -15  52 W8        30.52S WCI -15
WAUTOMA        NOT AVBL
WISC RAPIDS    CLOUDY    -5 -17  56 NW9       30.54R WCI -22
CAMP DOUGLAS   NOT AVBL
$$

WIZ011>013-019>022-031-037>040-048>050-131100-
NORTHEAST WISCONSIN

CITY           SKY/WX    TMP DP  RH WIND       PRES   REMARKS
ANTIGO         CLEAR     -9 -15  75 NW16      30.41R WCI -31
SHAWANO        CLEAR     -1 -12  60 W7        30.50R WCI -15
OCONTO         PTCLDY    -3 -12  66 W9        30.49R WCI -19
STURGEON BAY   CLEAR     -2 -13  60 W13       30.46R WCI -21
GREEN BAY      PTCLDY    -3 -13  62 NW12      30.50R WCI -21
MANITOWOC      NOT AVBL
APPLETON       CLEAR     -4 -15  59 W13       30.47R WCI -23
CLINTONVILLE   CLEAR     -2 -15  55 NW10      30.51R WCI -19
OSHKOSH        PTCLDY    -3 -15  56 W10       30.51R WCI -20
$$

WIZ032>034-041-042-053>061-131100-
SOUTHWEST WISCONSIN

CITY           SKY/WX    TMP DP  RH WIND       PRES   REMARKS
LA CROSSE      PTCLDY    -2 -15  54 CALM      30.63R
SPARTA         PTCLDY    -5 -15  61 CALM      30.60R
VIROQUA        PTCLDY    -6 -17  60 NW7       30.53R WCI -21
BOSCOBEL       CLOUDY    -6 -13  71 CALM      30.62R
PRAIRIE DU CHI CLOUDY     0 -13  55 NW3       30.62S
PLATTEVILLE    CLOUDY    -1 -10  64 NW6       30.55F WCI -12
$$

WIZ056-057-062-063-064-067-068-131100-
SOUTH CENTRAL WISCONSIN

CITY           SKY/WX    TMP DP  RH WIND       PRES   REMARKS
REEDSBURG      CLOUDY    -4 -15  57 W3        30.56S
BARABOO/DELLS  CLOUDY    -2 -17  49 NW5       30.54S WCI -13
LONE ROCK      NOT AVBL
MINERAL POINT  PTCLDY     1 -13  51 NW8       30.53S WCI -12
MADISON        CLEAR     -1 -15  51 NW7       30.54S WCI -14
MIDDLETON      CLEAR      1 -12  54 NW5       30.55S WCI  -9
WATERTOWN      CLEAR      0 -12  55 NW10      30.52R WCI -16
MONROE         CLEAR      1 -13  51 NW7G16    30.52S WCI -11
JANESVILLE     CLEAR      5  -9  51 NW13      30.54S WCI -12
$$

WIZ051-052-058>065-066-070>072-131100-
SOUTHEAST WISCONSIN

CITY           SKY/WX    TMP DP  RH WIND       PRES   REMARKS
MILWAUKEE      CLEAR      2 -13  49 NW12      30.51R WCI -15
WAUKESHA       CLEAR      0 -13  55 NW9       30.50F WCI -16
MILWAUKEE/TIMM PTCLDY     1 -15  46 NW15      30.51S WCI -18
RACINE         CLEAR      2 -13  49 NW13G18   30.52S WCI -15
BURLINGTON     CLEAR      0 -13  54 NW10      30.52S WCI -17
KENOSHA        CLEAR      2 -11  54 NW10      30.51S WCI -14
FOND DU LAC    PTCLDY    -2 -14  56 NW13      30.51R WCI -20
SHEBOYGAN      CLEAR     -1 -13  56 NW12      30.49R WCI -18
WEST BEND      CLEAR      0 -15  50 W12       30.49R WCI -18
JUNEAU         CLEAR     -2 -15  54 NW8       30.52S WCI -16
$$

LSZ147-162-131100-
LAKE SUPERIOR

STATION/POSITION TIME  TEMP    WIND        PRES    WAVE
                       AIR SEA DIR/SP/G            HT/PER
                 (UTC) (F)     (DEG/KT/KT) (MB)    (FT/S)
DEVILS ISLAND    0900    0     330/ 19/ 23 1037.1S
SAXON HARBOR     0940    2                 1034.2R
$$

LMZ867-665-643>646-131100-
LAKE MICHIGAN

STATION/POSITION TIME  TEMP    WIND        PRES    WAVE
                       AIR SEA DIR/SP/G            HT/PER
                 (UTC) (F)     (DEG/KT/KT) (MB)    (FT/S)
CHAMBERS ISLAND  0900    0     280/  9/ 15 1029.8F
SISTER BAY       0834    1     320/ 20/ 23   N/A
ALGOMA LAKESHORE 0911          310/  7/ 11   N/A
KEWAUNEE LAKESHO 0900   -1     290/  9/ 13 1030.5R
SHEBOYGAN LAKESH 0900    1     290/ 15/ 17 1034.2R
PORT WASHINGTON  0900    2     300/  9/ 15 1033.9R
MILWAUKEE LAKESH 0910    3     300/ 11/ 14   N/A
KENOSHA   LAKESH 0900    4     300/ 13/ 17 1032.8R
$$

TC  - TEMPERATURE IN CELSIUS
VSB - VISIBILITY IN STATUTE MILES
WCI - WIND CHILL INDEX
HX  - HEAT INDEX




USA.gov is the U.S. government's official web portal to all federal, state and local government web resources and services.